Weather History for KCQX - June, 2013

Change the Weather History Date:

Wednesday, June 5, 2013

  Actual Average Record
Temperature  
Mean Temperature 59 °F -  
Max Temperature 68 °F 64 °F 74 °F (1973)
Min Temperature 50 °F 51 °F 46 °F (1991)
Degree Days  
Heating Degree Days 6    
Growing Degree Days 9 (Base 50)    
Moisture  
Dew Point 47 °F    
Average Humidity 65    
Maximum Humidity 89    
Minimum Humidity 40    
Precipitation  
Precipitation 0.00 in - - ()
Sea Level Pressure  
Sea Level Pressure 30.17 in    
Wind  
Wind Speed 3 mph (SSE)    
Max Wind Speed 10 mph    
Max Gust Speed -    
Visibility 10 miles    
Events      
Averages and records for this station are not official NWS values.
T = Trace of Precipitation, MM = Missing Value Source: NWS Daily Summary

Daily Weather History Graph

Daily Weather History Graph

Search for Another Location

Airport or City:

Trip Planner

Search our weather history database for the weather conditions in past years. The results will help you decide how hot, cold, wet, or windy it might be!

Date:

Astronomy

Jun. 05, 2013 Rise Set
Actual Time 5:06 AM EDT 8:11 PM EDT
Civil Twilight 4:32 AM EDT 8:44 PM EDT
Nautical Twilight 3:49 AM EDT 9:27 PM EDT
Astronomical Twilight 2:58 AM EDT 10:18 PM EDT
Moon 3:10 AM EDT (6/5) 5:32 PM EDT (6/5)
Length of Visible Light 16h 12m
Length of Day
15h 04m
Waning Crescent, 8% of the Moon is Illuminated
Jun 5
Waning Crescent
Jun 8
New
Jun 16
First Quarter
Jun 23
Full
Jun 30
Last Quarter

Hourly Weather History & Observations

Time (EDT) Temp. Dew Point Humidity Pressure Visibility Wind Dir Wind Speed Gust Speed Precip Events Conditions
12:52 AM 51.1 °F 48.0 °F 89% 30.09 in 10.0 mi Calm Calm - N/A   Clear
1:52 AM 52.0 °F 46.9 °F 83% 30.10 in 10.0 mi Calm Calm - N/A   Clear
2:52 AM 53.1 °F 46.9 °F 80% 30.11 in 10.0 mi Variable 3.5 mph - N/A   Clear
3:52 AM 50.0 °F 46.0 °F 86% 30.12 in 10.0 mi NNW 3.5 mph - N/A   Clear
4:52 AM 50.0 °F 46.9 °F 89% 30.13 in 10.0 mi Calm Calm - N/A   Clear
5:52 AM 52.0 °F 48.0 °F 86% 30.15 in 10.0 mi Calm Calm - N/A   Clear
6:52 AM 59.0 °F 51.1 °F 75% 30.16 in 10.0 mi Calm Calm - N/A   Clear
7:52 AM 63.0 °F 46.0 °F 54% 30.18 in 10.0 mi NNE 4.6 mph - N/A   Clear
8:52 AM 64.9 °F 46.0 °F 50% 30.18 in 10.0 mi Calm Calm - N/A   Clear
9:52 AM 66.0 °F 41.0 °F 40% 30.19 in 10.0 mi NE 5.8 mph - N/A   Clear
10:52 AM 66.9 °F 44.1 °F 44% 30.20 in 10.0 mi North 4.6 mph - N/A   Clear
11:52 AM 64.9 °F 46.9 °F 52% 30.20 in 10.0 mi SSE 8.1 mph - N/A   Mostly Cloudy
12:52 PM 68.0 °F 46.9 °F 47% 30.20 in 10.0 mi South 5.8 mph - N/A   Scattered Clouds
1:52 PM 64.9 °F 46.9 °F 52% 30.19 in 10.0 mi Variable 6.9 mph - N/A   Clear
2:52 PM 64.0 °F 46.9 °F 54% 30.19 in 10.0 mi ESE 6.9 mph - N/A   Clear
3:52 PM 64.9 °F 45.0 °F 48% 30.17 in 10.0 mi SE 10.4 mph - N/A   Clear
4:52 PM 63.0 °F 45.0 °F 52% 30.17 in 10.0 mi SSE 5.8 mph - N/A   Clear
5:52 PM 61.0 °F 46.0 °F 58% 30.17 in 10.0 mi South 6.9 mph - N/A   Clear
6:52 PM 59.0 °F 45.0 °F 60% 30.18 in 10.0 mi South 4.6 mph - N/A   Clear
7:52 PM 59.0 °F 48.9 °F 69% 30.18 in 10.0 mi SSW 6.9 mph - N/A   Clear
8:52 PM 59.0 °F 46.9 °F 64% 30.19 in 10.0 mi SSW 5.8 mph - N/A   Clear
9:52 PM 57.9 °F 48.9 °F 72% 30.19 in 10.0 mi Variable 5.8 mph - N/A   Clear
10:52 PM 57.0 °F 50.0 °F 77% 30.19 in 10.0 mi SSW 3.5 mph - N/A   Clear
11:52 PM 57.9 °F 48.9 °F 72% 30.19 in 10.0 mi SSW 5.8 mph - N/A   Clear